ワイズ-パンスターズ彗星

444P/WISE-PanSTARRS (2003)

English version
Home page
Updated on December 17, 2022

---------------------------------------------------------------------

・ プロフィール

・ 軌道要素

                    Epoch = 2003 Oct.  8.0 TT
     T = 2003 Oct. 19.98067 TT        Peri. = 177.04018
     e = 0.5353642                    Node  =  91.99047 2000.0
     q = 1.6039128 AU                 Incl. =  26.59335
       a =  3.4519788 AU   n = 0.15367453   P =   6.41 years

・ 光度変化

        m1 = 16.0 + 5 logΔ + 10.0 log r

---------------------------------------------------------------------

軌道要素は、CBET 5137に掲載されたものです。
光度グラフはComet for Windowsで作成したものです。

---------------------------------------------------------------------

Copyright(C) Seiichi Yoshida (comet@aerith.net). All rights reserved.